Date,TemperatureHighF,TemperatureAvgF,TemperatureLowF,DewpointHighF,DewpointAvgF,DewpointLowF,HumidityHigh,HumidityAvg,HumidityLow,PressureMaxIn,PressureMinIn,WindSpeedMaxMPH,WindSpeedAvgMPH,GustSpeedMaxMPH,PrecipitationSumIn
2013-1-1,32,29,20,28,23,11,86,77,65,30.03,29.92,0,0,1,0.00
2013-1-2,27,18,11,11,5,-2,69,57,40,30.22,30.01,2,0,5,0.00
2013-1-3,33,19,2,15,6,-7,74,58,45,30.22,30.09,6,0,6,0.00
2013-1-4,33,28,22,17,13,8,61,54,44,30.21,30.10,7,1,7,0.00
2013-1-5,36,28,20,19,15,8,62,56,47,30.34,30.08,3,0,4,0.04
2013-1-6,38,34,28,24,21,16,66,60,54,30.08,29.92,3,0,6,0.08
2013-1-7,35,28,16,23,18,9,73,65,52,30.40,30.24,1,0,2,0.10
2013-1-8,44,26,12,30,16,6,86,69,46,30.33,30.22,2,0,5,0.02
2013-1-9,46,34,19,38,27,14,88,76,67,30.43,30.17,6,0,8,0.02
2013-1-10,40,32,22,31,23,17,87,70,55,30.56,30.22,2,0,2,0.00
2013-1-11,52,43,34,52,38,22,100,83,59,30.22,29.87,2,0,3,0.14
2013-1-12,62,54,46,62,53,46,100,97,80,29.99,29.83,1,0,2,0.00
2013-1-13,69,59,52,58,52,48,100,78,48,29.84,29.74,6,0,7,0.08
2013-1-14,57,38,29,57,28,18,100,69,47,30.31,29.77,3,0,5,0.02
2013-1-15,32,28,21,23,17,14,80,64,53,30.35,30.01,3,0,5,0.00
2013-1-16,33,32,30,31,28,24,92,88,76,30.01,29.84,1,0,5,0.02
2013-1-17,33,31,28,27,25,23,84,78,72,30.14,29.96,0,0,0,0.00
2013-1-18,32,25,13,23,6,-4,81,46,21,30.45,30.11,3,0,5,0.04
2013-1-19,52,41,30,11,4,-5,40,21,19,30.21,29.75,7,1,9,0.02
2013-1-20,44,33,18,25,5,-11,50,32,19,30.09,29.69,7,1,11,0.00
2013-1-21,25,20,8,8,2,-17,56,46,27,30.07,29.87,5,0,6,0.00
2013-1-22,13,7,2,-10,-18,-28,46,33,19,30.28,30.04,2,0,6,0.00
2013-1-23,16,9,-2,0,-13,-21,57,38,19,30.31,30.05,3,0,6,0.00
2013-1-24,21,12,6,6,-6,-25,68,46,19,30.53,30.02,3,0,7,0.00
2013-1-25,18,13,7,7,0,-11,66,55,41,30.51,29.99,0,0,2,0.00
2013-1-26,29,22,12,19,11,1,75,63,49,30.42,30.06,0,0,1,0.02
2013-1-27,30,19,4,13,6,-5,72,56,37,30.52,30.27,0,0,2,0.00
2013-1-28,50,40,29,50,36,13,100,87,50,30.28,29.93,6,0,6,0.35
2013-1-29,65,54,50,58,50,44,100,85,54,29.98,29.67,3,0,6,0.00
2013-1-30,65,55,50,55,50,44,100,82,56,29.69,29.12,6,0,6,0.73
2013-1-31,49,27,20,44,15,4,83,62,37,29.81,29.11,8,0,11,0.02
2013-2-1,20,13,4,12,-3,-13,72,48,35,30.33,29.78,7,0,8,0.00
2013-2-2,23,14,1,15,3,-11,76,61,49,30.32,29.93,5,0,6,0.00
2013-2-3,28,22,16,18,13,4,79,68,52,30.00,29.78,3,0,6,0.02
2013-2-4,27,21,15,19,10,2,79,62,47,30.05,29.81,5,0,6,0.00
2013-2-5,33,28,24,28,22,17,86,80,67,29.89,29.76,0,0,0,0.00
2013-2-6,34,26,12,22,15,3,83,66,41,30.30,29.89,2,0,5,0.02
2013-2-7,43,28,11,23,16,3,80,63,42,30.27,29.90,3,0,4,0.10
2013-2-8,37,31,24,33,24,16,87,74,65,30.10,29.74,5,0,6,0.10
2013-2-9,35,24,14,16,8,-5,70,52,19,30.35,30.10,2,0,4,0.00
2013-2-10,50,29,10,20,8,1,79,50,19,30.33,29.89,2,0,5,0.00
2013-2-11,61,45,36,48,28,16,92,58,19,29.89,29.56,10,0,12,0.04
2013-2-12,44,34,22,21,16,12,65,48,34,30.01,29.84,3,0,5,0.00
2013-2-13,38,28,18,27,20,11,82,71,52,29.87,29.63,1,0,4,0.00
2013-2-14,42,34,26,31,26,21,85,74,57,29.90,29.79,1,0,5,0.12
2013-2-15,40,34,26,31,24,19,84,68,45,30.00,29.83,3,0,6,0.00
2013-2-16,32,25,17,19,9,-7,73,54,22,30.00,29.87,3,0,3,0.04
2013-2-17,24,17,8,9,2,-11,66,51,28,30.24,29.87,5,0,6,0.02
2013-2-18,42,21,1,23,0,-11,67,44,19,30.29,29.81,5,0,6,0.00
2013-2-19,44,35,23,36,23,5,81,62,41,29.88,29.60,7,0,7,0.14
2013-2-20,23,20,17,8,3,-2,60,48,35,30.19,29.88,5,0,14,0.00
2013-2-21,26,21,16,10,4,0,62,50,36,30.32,30.15,3,0,5,0.00
2013-2-22,37,30,20,31,19,4,81,64,42,30.23,29.92,3,0,4,0.02
2013-2-23,45,35,26,34,27,20,82,73,55,29.93,29.78,0,0,2,0.00
2013-2-24,32,27,21,22,17,12,80,65,51,30.09,29.80,5,0,6,0.00
2013-2-25,44,34,18,24,9,2,76,41,19,30.18,30.06,3,0,5,0.00
2013-2-26,42,37,28,34,20,2,88,57,19,30.06,29.49,6,1,6,0.65
2013-2-27,43,38,32,39,33,28,92,82,65,29.61,29.47,5,0,6,0.20
2013-2-28,34,33,31,29,27,24,85,80,73,29.76,29.55,3,0,4,0.04
2013-3-1,32,30,25,26,21,14,83,69,61,29.92,29.75,2,0,7,0.02
2013-3-2,30,26,24,17,15,12,72,63,51,29.91,29.85,2,0,4,0.02
2013-3-3,29,25,21,17,12,7,73,59,44,29.97,29.86,3,0,6,0.00
2013-3-4,40,26,18,12,7,-4,65,47,19,30.08,29.96,5,0,5,0.00
2013-3-5,44,31,14,19,5,-3,74,39,19,30.04,29.59,5,1,7,0.00
2013-3-6,42,35,31,31,23,16,83,64,42,30.05,29.59,7,0,7,0.38
2013-3-7,41,34,30,28,24,20,77,66,48,30.23,30.03,2,0,5,0.00
2013-3-8,37,31,23,24,19,14,71,62,51,30.37,30.22,3,0,5,0.00
2013-3-9,55,35,17,30,17,7,83,54,19,30.36,30.11,3,0,6,0.00
2013-3-10,72,57,38,28,23,16,55,29,19,30.08,29.90,5,0,5,0.00
2013-3-11,64,54,46,44,27,18,77,37,19,29.91,29.57,6,0,10,0.18
2013-3-12,48,39,34,41,30,22,83,69,56,29.92,29.67,3,0,6,0.00
2013-3-13,39,31,26,28,21,13,81,66,45,30.09,29.86,5,0,7,0.02
2013-3-14,40,29,20,16,8,-4,61,44,19,30.18,30.07,6,0,6,0.00
2013-3-15,52,37,19,30,20,8,68,51,35,30.09,29.74,6,0,7,0.00
2013-3-16,41,37,31,37,32,25,88,83,67,29.90,29.55,2,0,3,0.04
2013-3-17,38,33,28,26,17,14,80,53,39,30.13,29.90,5,0,5,0.00
2013-3-18,39,34,28,34,27,15,89,76,53,30.10,29.61,6,0,6,0.30
2013-3-19,46,38,26,39,20,-1,91,54,19,29.91,29.61,9,1,12,0.04
2013-3-20,43,30,19,14,5,-2,60,39,19,29.92,29.74,12,0,12,0.00
2013-3-21,30,23,14,12,0,-12,61,39,19,29.87,29.79,7,0,9,0.00
2013-3-22,36,27,19,13,10,6,65,49,30,29.98,29.83,3,0,6,0.00
2013-3-23,51,31,14,26,10,-1,80,47,19,30.00,29.90,6,0,7,0.00
2013-3-24,45,32,24,26,13,1,74,48,19,29.93,29.45,6,1,8,0.00
2013-3-25,38,34,31,33,29,25,88,81,73,29.67,29.41,1,0,2,0.31
2013-3-26,42,35,30,31,28,23,90,76,56,30.01,29.67,3,0,5,0.14
2013-3-27,46,37,31,32,24,16,87,62,32,30.09,29.99,5,0,6,0.04
2013-3-28,47,38,34,26,22,20,63,53,36,30.19,30.05,5,0,6,0.00
2013-3-29,56,42,32,29,18,1,67,42,19,30.20,30.06,3,0,5,0.00
2013-3-30,58,39,20,30,12,-1,77,38,19,30.19,29.93,6,0,6,0.00
2013-3-31,52,43,35,44,30,8,83,61,31,29.94,29.64,3,0,3,0.08
2013-4-1,48,40,26,41,20,-9,86,51,19,29.97,29.62,5,0,6,0.02
2013-4-2,45,30,21,14,2,-12,55,33,19,30.14,29.96,8,0,8,0.00
2013-4-3,45,30,20,12,0,-15,55,31,19,30.36,30.12,7,0,8,0.00
2013-4-4,56,34,13,14,5,-16,65,32,19,30.34,29.90,5,0,5,0.00
2013-4-5,59,41,24,24,9,-4,60,29,19,30.10,29.85,6,0,6,0.00
2013-4-6,60,41,18,20,10,3,66,33,19,30.24,29.92,5,0,5,0.00
2013-4-7,74,60,48,39,25,8,46,27,19,29.92,29.76,6,1,15,0.00
2013-4-8,75,62,44,44,36,31,72,43,20,29.94,29.78,7,0,8,0.00
2013-4-9,82,69,54,48,43,39,75,42,22,29.99,29.78,5,0,5,0.00
2013-4-10,81,68,59,59,50,42,86,54,31,29.85,29.65,7,0,7,0.53
2013-4-11,75,64,53,59,52,30,100,70,32,29.78,29.47,3,0,3,0.00
2013-4-12,64,56,44,59,44,28,91,66,40,29.77,29.38,5,0,6,0.34
2013-4-13,56,45,34,31,28,25,73,52,32,29.95,29.76,3,0,6,0.00
2013-4-14,64,45,26,32,24,18,83,49,19,30.08,29.96,2,0,2,0.00
2013-4-15,65,61,56,43,41,39,57,48,43,30.01,29.96,0,0,1,0.00
2013-4-16,80,64,50,55,48,40,87,60,33,30.08,29.92,6,0,9,0.57
2013-4-17,70,59,52,54,49,44,91,70,45,30.16,29.99,2,0,3,0.00
2013-4-18,87,71,56,57,50,38,89,53,19,30.01,29.64,6,1,7,0.00
2013-4-19,70,59,43,58,43,25,78,57,43,29.77,29.37,6,0,9,0.18
2013-4-20,52,41,31,26,19,2,64,44,19,30.34,29.77,3,0,7,0.00
2013-4-21,56,40,22,26,12,1,77,38,19,30.54,30.34,3,0,6,0.00
2013-4-22,66,50,35,24,16,-1,49,27,19,30.39,30.18,5,0,7,0.00
2013-4-23,73,54,33,33,25,16,71,37,19,30.19,29.85,2,0,3,0.00
2013-4-24,71,55,39,53,39,29,79,56,34,30.08,29.66,5,0,8,0.28
2013-4-25,60,46,29,38,27,17,90,53,19,30.28,30.08,5,0,8,0.02
2013-4-26,63,47,31,43,25,8,91,50,19,30.40,30.27,3,0,5,0.00
2013-4-27,76,55,32,38,27,17,82,41,19,30.32,30.04,6,0,6,0.00
2013-4-28,63,55,48,53,43,30,84,64,36,30.04,29.84,2,0,3,0.20
2013-4-29,65,57,51,55,50,44,86,78,61,29.93,29.83,0,0,0,0.18
2013-4-30,75,62,49,58,48,43,100,63,32,30.08,29.92,5,0,6,0.00
2013-5-1,80,64,50,50,40,22,87,49,19,30.20,30.08,2,0,3,0.00
2013-5-2,80,62,44,36,30,18,64,32,19,30.26,30.09,9,0,10,0.00
2013-5-3,78,62,45,35,31,24,61,34,19,30.15,30.04,5,0,7,0.00
2013-5-4,74,60,46,35,30,24,53,35,19,30.10,29.98,6,0,8,0.00
2013-5-5,76,60,42,38,29,16,74,36,19,30.05,29.90,5,0,6,0.00
2013-5-6,72,60,44,48,38,24,65,46,32,29.99,29.89,6,0,9,0.00
2013-5-7,68,61,57,56,50,47,79,68,49,29.92,29.85,5,0,5,0.10
2013-5-8,76,65,53,54,45,34,91,54,22,29.88,29.77,2,0,3,0.16
2013-5-9,81,65,52,54,46,34,89,56,19,29.89,29.80,0,0,2,0.02
2013-5-10,78,63,55,61,54,45,90,74,43,29.89,29.69,7,0,8,0.57
2013-5-11,61,57,47,58,52,42,92,84,67,29.75,29.66,1,0,2,0.08
2013-5-12,54,48,35,49,30,20,91,54,28,29.98,29.74,5,0,6,0.00
2013-5-13,56,43,29,29,20,3,78,44,19,30.12,29.98,5,0,6,0.00
2013-5-14,65,47,26,34,27,17,84,50,23,30.13,29.80,5,0,7,0.00
2013-5-15,87,66,48,54,48,33,77,54,27,29.80,29.60,8,0,9,0.00
2013-5-16,80,69,58,63,51,39,89,57,23,29.86,29.65,1,0,2,0.06
2013-5-17,84,68,56,60,52,42,91,61,25,30.00,29.86,2,0,3,0.00
2013-5-18,86,69,52,55,48,40,77,51,25,30.04,29.92,3,0,4,0.00
2013-5-19,79,69,57,59,56,52,89,64,46,30.00,29.86,3,0,6,0.00
2013-5-20,88,73,58,64,58,54,91,63,36,29.93,29.79,3,0,5,0.00
2013-5-21,89,76,64,69,60,55,100,63,32,29.85,29.70,3,0,6,0.12
2013-5-22,88,72,61,62,58,53,88,65,32,29.78,29.66,6,0,6,0.02
2013-5-23,77,66,51,66,58,47,100,78,45,29.81,29.66,2,0,4,0.71
2013-5-24,52,47,42,47,37,28,88,71,46,30.22,29.81,5,0,5,0.02
2013-5-25,66,55,34,43,30,21,93,43,19,30.25,30.12,2,0,5,0.02
2013-5-26,71,52,33,40,29,23,85,48,19,30.23,30.13,2,0,4,0.00
2013-5-27,62,52,36,45,38,29,88,61,43,30.20,30.00,0,0,0,0.00
2013-5-28,82,66,55,65,54,44,91,68,38,30.00,29.87,2,0,5,0.12
2013-5-29,89,74,63,59,55,50,79,54,30,29.98,29.88,1,0,4,0.00
2013-5-30,91,75,59,65,56,52,89,57,28,30.07,29.96,1,0,3,0.00
2013-5-31,89,76,63,64,57,50,90,56,28,30.00,29.86,0,0,6,0.00
2013-6-1,89,77,67,66,59,55,86,57,34,29.90,29.68,3,0,4,0.06
2013-6-2,81,74,65,65,58,52,83,59,38,29.76,29.66,1,0,2,0.02
2013-6-3,68,62,49,55,49,37,77,64,50,29.99,29.75,3,0,3,0.00
2013-6-4,75,58,38,49,39,34,91,54,25,30.08,29.98,2,0,5,0.00
2013-6-5,84,67,48,56,48,41,83,53,31,30.05,29.81,1,0,2,0.00
2013-6-6,73,67,63,64,61,53,91,82,60,29.82,29.65,1,0,3,1.36
2013-6-7,67,63,59,61,58,51,92,84,70,29.75,29.64,1,0,2,0.00
2013-6-8,75,63,56,54,51,48,86,68,40,30.01,29.76,1,0,1,0.00
2013-6-9,85,70,54,61,55,50,100,63,33,30.07,29.89,2,0,6,0.00
2013-6-10,76,70,65,68,63,59,87,78,61,29.90,29.67,1,0,3,0.59
2013-6-11,81,69,60,68,61,55,92,78,48,29.79,29.67,2,0,5,0.12
2013-6-12,85,74,62,67,63,59,100,70,46,29.80,29.61,0,0,0,0.00
2013-6-13,73,67,58,68,61,52,100,81,67,29.69,29.39,3,0,6,0.90
2013-6-14,76,62,53,58,53,48,100,76,38,29.97,29.69,3,0,4,0.00
2013-6-15,80,65,49,61,49,41,100,62,27,30.05,29.90,0,0,1,0.00
2013-6-16,74,67,62,66,60,51,89,78,64,29.91,29.80,5,0,5,0.28
2013-6-17,86,73,63,70,60,51,100,67,33,29.87,29.78,1,0,1,0.00
2013-6-18,80,68,61,65,60,56,88,77,51,29.85,29.73,0,0,1,0.73
2013-6-19,78,65,54,56,48,36,91,60,22,30.05,29.85,5,0,6,0.00
2013-6-20,83,66,48,59,48,42,100,60,25,30.14,30.05,2,0,2,0.00
2013-6-21,87,70,53,64,51,45,95,59,23,30.16,30.05,5,0,5,0.00
2013-6-22,90,74,57,66,58,52,91,62,35,30.09,29.96,2,0,4,0.00
2013-6-23,90,76,65,70,62,57,91,64,34,30.05,29.93,0,0,0,0.00
2013-6-24,90,77,64,70,60,56,91,60,32,30.03,29.88,0,0,0,0.00
2013-6-25,92,77,66,66,62,57,88,64,35,29.93,29.75,0,0,0,0.14
2013-6-26,85,74,66,69,64,62,100,75,47,29.85,29.69,0,0,0,1.24
2013-6-27,78,71,67,69,66,62,92,84,64,29.69,29.52,0,0,0,0.38
2013-6-28,78,69,62,68,63,57,100,83,60,29.55,29.38,0,0,0,0.08
2013-6-29,83,69,57,67,59,56,100,74,41,29.58,29.44,1,0,8,0.00
2013-6-30,84,71,61,69,61,58,100,73,43,29.74,29.57,3,0,4,0.16
2013-7-1,82,70,65,68,63,60,100,80,48,29.84,29.70,3,0,5,0.24
2013-7-2,86,72,66,70,65,62,100,81,45,29.94,29.81,0,0,0,0.16
2013-7-3,88,76,67,66,63,59,90,68,38,30.05,29.94,3,0,3,0.00
2013-7-4,88,76,69,67,64,58,88,69,38,30.11,29.99,5,0,6,0.02
2013-7-5,88,76,67,68,64,61,92,68,41,30.05,29.97,3,0,4,0.02
2013-7-6,90,77,68,71,65,60,91,70,36,30.07,29.90,1,0,4,0.04
2013-7-7,80,73,68,68,65,63,90,76,59,29.99,29.90,2,0,3,0.08
2013-7-8,86,73,61,67,63,59,100,73,44,30.01,29.92,2,0,3,0.30
2013-7-9,86,74,69,71,67,63,93,80,56,30.00,29.84,1,0,2,0.92
2013-7-10,86,72,65,76,68,62,100,88,63,29.90,29.70,2,0,5,1.52
2013-7-11,78,69,60,69,60,53,100,77,46,29.90,29.78,3,0,6,0.00
2013-7-12,76,66,56,65,60,54,100,82,54,30.00,29.88,1,0,2,0.02
2013-7-13,87,73,60,67,61,58,100,70,38,30.11,29.98,3,0,10,0.00
2013-7-14,92,78,68,68,63,58,90,62,33,30.17,30.09,3,0,7,0.00
2013-7-15,94,79,67,72,64,58,92,65,32,30.23,30.11,1,0,3,0.00
2013-7-16,92,78,69,71,67,62,89,70,44,30.21,30.12,6,0,6,0.00
2013-7-17,92,80,70,75,70,66,91,74,44,30.19,30.04,2,0,3,0.00
2013-7-18,95,82,70,76,69,63,100,68,36,30.05,29.90,2,0,4,0.00
2013-7-19,92,79,71,76,67,61,90,70,40,29.91,29.74,0,0,0,0.00
2013-7-20,85,75,68,70,66,62,89,75,53,29.81,29.73,0,0,0,0.10
2013-7-21,86,75,68,69,65,59,91,74,48,29.86,29.77,0,0,0,0.02
2013-7-22,81,72,65,70,66,62,100,83,64,29.83,29.66,0,0,0,0.30
2013-7-23,87,73,64,68,64,54,93,76,41,29.68,29.57,1,0,1,0.10
2013-7-24,73,65,56,66,54,48,100,69,43,29.90,29.63,7,0,7,0.00
2013-7-25,80,64,51,56,48,40,100,62,25,29.99,29.89,3,0,5,0.00
2013-7-26,84,66,51,64,50,45,100,62,27,30.01,29.89,3,0,4,0.00
2013-7-27,76,66,58,66,60,54,91,82,65,29.89,29.74,3,0,5,0.59
2013-7-28,78,68,54,66,58,50,100,74,39,29.94,29.74,2,0,3,0.06
2013-7-29,77,61,51,61,51,48,100,73,39,30.10,29.93,6,0,6,0.00
2013-7-30,81,65,52,65,52,48,100,68,34,30.15,30.04,0,0,0,0.00
2013-7-31,80,66,56,66,58,53,100,77,45,30.06,29.84,3,0,4,0.02
2013-8-1,84,71,62,67,60,55,90,71,41,29.84,29.75,2,0,3,0.02
2013-8-2,79,68,56,67,54,47,100,66,33,29.89,29.80,1,0,4,0.00
2013-8-3,80,68,57,66,60,52,91,75,52,29.91,29.81,0,0,3,0.20
2013-8-4,78,62,52,64,52,47,100,75,35,30.00,29.89,5,0,5,0.00
2013-8-5,78,62,50,61,50,43,100,70,30,30.05,29.92,0,0,0,0.00
2013-8-6,84,68,54,62,51,45,100,63,26,29.94,29.86,0,0,0,0.00
2013-8-7,87,69,60,66,61,55,91,78,45,29.91,29.80,2,0,3,0.47
2013-8-8,87,75,65,72,66,62,100,77,49,29.87,29.78,0,0,3,0.00
2013-8-9,84,74,65,73,67,61,90,79,62,29.90,29.76,0,0,0,0.06
2013-8-10,84,71,61,67,60,57,100,71,41,29.99,29.91,0,0,1,0.00
2013-8-11,86,71,59,66,60,54,87,69,39,30.03,29.90,0,0,0,0.00
2013-8-12,86,74,62,70,60,54,100,67,36,29.95,29.76,0,0,0,0.00
2013-8-13,81,71,55,66,58,44,86,64,39,29.88,29.68,5,0,6,0.02
2013-8-14,69,57,49,54,48,45,92,73,46,30.07,29.87,5,0,5,0.00
2013-8-15,77,58,32,58,45,2,100,67,24,30.12,30.00,0,0,0,0.00
2013-8-16,81,63,51,58,48,43,91,64,27,30.07,30.00,2,0,4,0.00
2013-8-17,82,65,53,61,50,42,92,64,26,30.16,30.06,0,0,0,0.00
2013-8-18,74,66,61,62,58,52,86,74,56,30.12,30.03,0,0,0,0.02
2013-8-19,79,69,60,69,62,56,91,80,53,30.04,29.95,0,0,2,0.77
2013-8-20,87,69,54,69,56,51,100,70,30,30.09,30.00,12,0,25,0.00
2013-8-21,87,71,57,67,58,54,100,67,32,30.10,29.95,22,1,25,0.00
2013-8-22,87,74,64,66,63,60,89,71,45,29.99,29.87,18,0,28,0.12
2013-8-23,82,71,60,68,60,51,90,72,41,30.05,29.87,33,1,43,0.04
2013-8-24,81,67,54,62,54,50,100,66,37,30.19,30.04,31,2,35,0.00
2013-8-25,86,68,54,66,54,50,100,68,30,30.27,30.14,22,1,25,0.00
2013-8-26,88,71,57,62,57,54,89,65,34,30.15,29.91,26,7,33,0.00
2013-8-27,83,74,69,68,65,63,88,74,54,29.91,29.82,23,0,28,0.00
2013-8-28,84,75,70,75,69,66,92,84,63,29.83,29.69,3,0,4,0.69
2013-8-29,86,74,67,70,65,60,93,75,43,29.92,29.80,0,0,14,0.00
2013-8-30,88,74,62,72,63,59,100,71,42,29.90,29.72,0,0,0,0.00
2013-8-31,89,76,69,69,65,60,91,73,39,29.75,29.65,0,0,0,0.00
2013-9-1,80,73,68,69,66,64,91,81,63,29.73,29.65,0,0,0,0.00
2013-9-2,87,74,64,71,65,60,93,76,47,29.74,29.60,0,0,0,0.04
2013-9-3,75,65,55,66,55,49,100,72,41,29.94,29.72,0,0,0,0.00
2013-9-4,79,62,49,61,51,47,100,70,35,30.04,29.93,21,0,35,0.00
2013-9-5,76,63,52,65,51,42,100,68,32,30.11,29.95,0,0,0,0.00
2013-9-6,75,58,42,55,40,28,100,59,19,30.20,30.03,0,0,0,0.00
2013-9-7,81,62,43,57,46,40,100,62,24,30.04,29.84,0,0,0,0.00
2013-9-8,82,69,60,62,57,54,81,65,47,29.94,29.79,0,0,0,0.00
2013-9-9,86,68,55,66,60,52,100,76,49,30.00,29.89,0,0,0,0.00
2013-9-10,92,78,68,70,66,64,92,71,41,30.02,29.92,0,0,0,0.00
2013-9-11,92,77,70,73,66,59,91,72,38,30.03,29.89,0,0,0,0.00
2013-9-12,79,71,61,70,65,58,92,83,63,29.89,29.69,0,0,0,0.22
2013-9-13,68,59,52,62,52,42,100,79,54,29.94,29.72,22,5,22,0.14
2013-9-14,67,55,45,47,42,36,87,66,34,30.10,29.93,2,0,22,0.00
2013-9-15,71,56,40,58,45,38,100,72,40,30.12,29.97,0,0,0,0.00
2013-9-16,72,60,52,59,51,45,96,74,42,30.22,29.97,0,0,0,0.22
2013-9-17,72,55,42,53,44,39,100,70,35,30.31,30.16,0,0,0,0.00
2013-9-18,75,56,42,54,44,39,100,69,35,30.17,30.02,0,0,0,0.00
2013-9-19,79,66,59,62,55,52,87,70,40,30.04,29.92,0,0,0,0.00
2013-9-20,81,69,57,68,61,54,100,78,53,29.94,29.71,0,0,0,0.00
2013-9-21,68,63,54,67,61,54,100,92,85,29.72,29.57,0,0,0,0.73
2013-9-22,65,56,51,57,48,41,100,78,45,29.94,29.71,0,0,0,0.00
2013-9-23,58,52,40,49,42,37,89,71,46,30.07,29.93,0,0,0,0.00
2013-9-24,70,50,36,55,40,34,100,73,33,30.06,29.89,0,0,0,0.00
2013-9-25,76,55,42,56,45,39,100,74,34,29.90,29.78,0,0,0,0.00
2013-9-26,78,58,46,58,47,38,100,72,25,29.99,29.83,0,0,0,0.00
2013-9-27,77,57,43,58,46,41,100,72,33,30.10,29.98,0,0,0,0.00
2013-9-28,75,58,47,58,48,44,100,73,37,30.17,30.05,0,0,0,0.00
2013-9-29,75,60,47,56,50,44,100,71,42,30.06,29.90,0,0,0,0.00
2013-9-30,73,61,53,60,54,50,100,79,53,29.96,29.87,0,0,0,0.00
2013-10-1,79,63,55,62,55,52,100,76,42,30.00,29.90,0,0,0,0.00
2013-10-2,82,65,54,67,56,52,100,78,43,30.01,29.93,0,0,0,0.00
2013-10-3,78,67,57,67,60,54,100,82,56,30.01,29.91,0,0,0,0.06
2013-10-4,82,69,60,68,62,57,100,79,45,30.00,29.92,0,0,0,0.00
2013-10-5,84,70,62,67,62,59,100,78,44,29.99,29.88,0,0,0,0.26
2013-10-6,84,71,63,67,59,52,100,69,38,29.88,29.63,0,0,0,0.00
2013-10-7,70,56,45,55,46,39,88,69,50,30.06,29.58,0,0,0,0.24
2013-10-8,68,51,38,54,41,36,100,73,35,30.23,30.06,0,0,0,0.00
2013-10-9,70,52,38,51,38,34,100,66,29,30.27,30.15,0,0,0,0.00
2013-10-10,70,55,44,46,39,35,84,58,29,30.15,30.00,0,0,0,0.00
2013-10-11,63,58,53,55,51,41,86,78,56,30.01,29.95,0,0,0,0.06
2013-10-12,73,62,54,59,54,49,88,75,57,30.05,29.96,0,0,0,0.02
2013-10-13,71,63,56,60,54,50,88,75,56,30.16,30.04,0,0,0,0.02
2013-10-14,63,59,56,57,54,51,91,85,75,30.21,30.13,0,0,0,0.04
2013-10-15,72,60,18,60,54,14,100,80,56,30.14,29.87,0,0,0,0.00
2013-10-16,64,59,55,62,56,51,100,90,84,29.91,29.76,0,0,0,0.28
2013-10-17,62,55,50,58,50,46,92,84,68,29.82,29.61,0,0,0,0.32
2013-10-18,62,50,40,49,41,36,100,75,42,29.95,29.81,0,0,0,0.00
2013-10-19,55,44,35,49,39,33,100,85,63,29.91,29.68,0,0,0,0.04
2013-10-20,58,44,34,47,35,32,100,74,38,29.98,29.87,0,0,0,0.02
2013-10-21,67,47,34,44,33,26,94,64,23,30.00,29.75,0,0,0,0.02
2013-10-22,54,45,36,44,32,24,87,63,35,29.90,29.74,0,0,0,0.06
2013-10-23,43,39,32,38,33,29,87,81,67,29.87,29.69,0,0,0,0.04
2013-10-24,46,36,27,36,29,22,92,77,46,30.09,29.87,0,0,0,0.00
2013-10-25,51,36,25,37,27,21,94,73,40,30.29,30.09,0,0,0,0.00
2013-10-26,51,39,27,30,22,7,81,55,19,30.20,29.83,0,0,0,0.00
2013-10-27,54,40,29,38,26,23,88,61,33,30.05,29.90,0,0,0,0.00
2013-10-28,60,39,25,39,27,20,89,65,29,30.23,30.03,0,0,0,0.00
2013-10-29,60,43,29,39,32,25,90,68,35,30.33,30.19,0,0,0,0.00
2013-10-30,64,51,41,52,41,34,88,71,47,30.18,30.00,0,0,0,0.00
2013-10-31,68,61,55,57,54,48,91,79,51,30.00,29.35,0,0,0,0.14
2013-11-1,67,57,50,53,44,37,85,64,39,29.61,29.22,0,0,0,0.16
2013-11-2,54,48,40,42,39,36,90,72,53,29.88,29.56,0,0,0,0.02
2013-11-3,51,39,26,40,30,19,90,71,43,30.40,29.89,0,0,0,0.00
2013-11-4,47,34,22,27,17,4,83,55,19,30.50,30.36,0,0,0,0.00
2013-11-5,59,44,33,30,26,22,69,49,26,30.45,30.25,0,0,0,0.00
2013-11-6,72,54,33,52,38,22,88,59,34,30.26,29.82,0,0,0,0.08
2013-11-7,58,46,35,54,38,23,89,74,51,30.07,29.75,0,0,0,0.47
2013-11-8,44,35,24,30,23,16,82,62,39,30.25,30.01,0,0,0,0.00
2013-11-9,56,40,22,30,18,3,86,50,19,30.24,29.88,0,0,0,0.00
2013-11-10,52,42,28,34,25,20,71,51,32,30.22,29.88,0,0,0,0.00
2013-11-11,50,38,25,34,25,19,84,61,32,30.22,29.96,0,0,0,0.02
2013-11-12,35,29,22,28,20,14,83,71,50,30.44,30.04,0,0,0,0.06
2013-11-13,37,27,18,22,16,12,81,63,42,30.50,30.32,0,0,0,0.02
2013-11-14,48,33,22,21,11,-2,68,44,19,30.32,30.11,0,0,0,0.02
2013-11-15,55,42,26,30,17,6,58,40,19,30.17,30.05,0,0,0,0.00
2013-11-16,60,49,34,45,38,28,87,67,45,30.17,29.93,0,0,0,0.00
2013-11-17,60,56,49,58,52,44,100,88,75,29.93,29.43,0,0,0,0.58
2013-11-18,56,47,38,49,30,19,78,54,34,29.99,29.51,0,0,0,0.00
2013-11-19,39,34,22,20,17,12,69,51,42,30.36,29.98,0,0,0,0.00
2013-11-20,49,31,20,24,8,-8,82,46,19,30.43,30.29,0,0,0,0.00
2013-11-21,56,42,28,35,23,6,58,46,34,30.38,30.13,0,0,0,0.00
2013-11-22,54,49,35,51,44,30,91,82,56,30.17,29.96,0,0,0,0.18
2013-11-23,40,30,17,30,19,4,79,64,40,30.31,30.07,0,0,0,0.00
2013-11-24,24,16,8,9,3,-3,63,56,39,30.53,30.30,0,0,0,0.00
2013-11-25,35,22,8,10,-1,-6,68,42,19,30.48,30.16,0,0,0,0.02
2013-11-26,35,32,31,30,27,11,92,81,37,30.16,29.67,0,0,0,0.64
2013-11-27,32,28,21,30,22,11,92,79,62,30.09,29.66,0,0,0,0.00
2013-11-28,30,22,11,15,10,2,74,61,46,30.38,30.09,0,0,0,0.00
2013-11-29,34,25,18,20,14,11,77,63,42,30.62,30.36,0,0,0,0.00
2013-11-30,38,27,18,20,16,11,75,64,44,30.57,30.17,0,0,0,0.04
2013-12-1,42,34,22,27,24,15,84,67,48,30.17,29.91,0,0,0,0.10
2013-12-2,50,39,34,33,30,26,78,69,52,29.91,29.74,0,0,0,0.00
2013-12-3,53,41,35,43,34,24,90,79,57,29.84,29.77,0,0,0,0.02
2013-12-4,58,45,33,45,39,30,94,79,57,29.92,29.77,0,0,0,0.00
2013-12-5,60,54,40,58,49,37,100,83,68,29.97,29.75,0,0,0,0.67
2013-12-6,40,33,28,37,30,24,92,88,85,30.22,29.95,0,0,0,0.22
2013-12-7,33,24,14,24,16,6,87,72,53,30.56,30.21,0,0,0,0.02
2013-12-8,30,22,13,26,14,6,86,72,60,30.56,30.02,0,0,0,0.00
2013-12-9,36,33,29,36,29,19,100,85,66,30.08,29.89,0,0,0,0.04
2013-12-10,29,24,17,19,11,0,76,59,35,30.22,29.98,0,0,0,0.00
2013-12-11,30,21,14,14,6,2,65,53,38,30.33,30.19,0,0,0,0.00
2013-12-12,20,16,4,6,-9,-18,66,37,19,30.45,30.23,0,0,0,0.00
2013-12-13,33,21,16,6,-3,-14,40,35,23,30.23,30.15,0,0,0,0.00
2013-12-14,35,33,30,33,29,20,93,85,63,30.10,29.59,0,0,0,0.18
2013-12-15,36,29,19,35,22,2,94,76,47,29.99,29.55,0,0,0,0.04
2013-12-16,24,21,18,15,9,3,69,58,50,30.13,29.99,0,0,0,0.00
2013-12-17,34,29,24,30,22,15,87,75,59,29.99,29.87,0,0,0,0.04
2013-12-18,30,24,16,19,14,6,76,65,53,30.16,29.99,0,0,0,0.00
2013-12-19,51,35,20,29,22,12,76,59,38,30.06,29.95,0,0,0,0.00
2013-12-20,55,49,35,48,35,24,83,60,39,29.95,29.79,0,0,0,0.00
2013-12-21,59,58,56,59,53,47,100,86,69,29.78,29.53,0,0,0,0.36
2013-12-22,67,58,52,62,52,44,100,80,67,29.85,29.42,0,0,0,0.18
2013-12-23,52,38,29,45,32,18,89,79,62,30.23,29.85,0,0,0,0.06
2013-12-24,29,21,7,18,6,-5,71,53,36,30.50,30.17,0,0,0,0.00
2013-12-25,25,17,5,17,5,-6,73,59,44,30.51,30.19,0,0,0,0.00
2013-12-26,34,28,18,25,17,6,85,65,45,30.31,30.08,0,0,0,0.04
2013-12-27,40,30,17,21,16,7,71,57,44,30.33,30.20,0,0,0,0.02
2013-12-28,51,39,31,25,20,15,54,46,34,30.20,29.99,0,0,0,0.00
2013-12-29,42,39,35,40,33,20,94,79,47,29.98,29.60,0,0,0,0.43
2013-12-30,39,26,20,36,17,5,90,69,51,30.15,29.77,0,0,0,0.02
2013-12-31,25,22,18,15,11,6,70,61,51,30.28,30.03,0,0,0,0.00
2014-1-1,36,29,23,21,17,12,69,61,52,30.28,29.99,0,0,0,0.00
2014-1-2,30,24,10,24,16,-1,80,72,62,30.00,29.63,0,0,0,0.00